Tracking 30685 objects as of 17-Jun-2025
HD Live streaming from Space Station
objects crossing your sky now

STARLINK-33969

Track STARLINK-33969 now!
10-day predictions
STARLINK-33969 is classified as:


NORAD ID: 63855
Int'l Code: 2025-093V
Perigee: 449.8 km
Apogee: 452.4 km
Inclination: 43.0 °
Period: 93.5 minutes
Semi major axis: 6822 km
RCS: Unknown
Launch date: May 7, 2025
Source: United States (US)
Launch site: AIR FORCE EASTERN TEST RANGE (AFETR)
Your satellite tracking list
Your tracking list is empty




NASA's NSSDC Master Catalog

Two Line Element Set (TLE):
1 63855U 25093V   25167.40471154  .00033532  00000-0  80556-3 0  9996
2 63855  43.0021 142.0339 0001921 262.4736  97.5903 15.40732992  7028
Source of the keplerian elements: AFSPC